Regional Weather Roundup
Issued by NWS Kansas City/Pleasant Hill, MO

Home | Current Version | Previous Version | Graphics & Text | Print | Product List | Glossary Off
Versions: 1 2 3 4 5 6 7 8 9 10 11 12 13 14 15 16 17 18 19 20 21 22 23 24 25 26 27 28 29 30 31 32 33 34 35 36 37 38 39 40 41 42 43 44 45 46 47 48 49 50

000
ASUS43 KEAX 050811
RWREAX

WEATHER ROUNDUP FOR EASTERN KANSAS AND NORTHWEST MISSOURI
NATIONAL WEATHER SERVICE KANSAS CITY/PLEASANT HILL MO
200 AM CST THU MAR 05 2015

KSZ040-057-103>105-MOZ028-029-037-043-050900-
...KANSAS CITY METROPOLITAN AREA...

CITY           SKY/WX    TMP DP  RH WIND       PRES   REMARKS
K.C. INTL      CLEAR     14   3  61 N12       30.45R WCI   0
K.C. DOWNTOWN  CLEAR     19   3  49 N9        30.47R WCI   8
LEES SUMMIT    PTCLDY    17   4  56 N8        30.44R WCI   7
OLATHE - IXD   CLEAR     13   4  67 N8        30.45R WCI   2
OLATHE - OJC   CLEAR     19   4  51 N6        30.43R WCI  11
LAWRENCE       CLEAR     15   3  59 W3        30.47R

$$

MOZ001>008-011>017-020>025-030>033-038>040-044>046-053-054-050900-
...NORTHERN AND CENTRAL MISSOURI...

CITY           SKY/WX    TMP DP  RH WIND       PRES   REMARKS
ST. JOSEPH     CLEAR     10   2  69 N6        30.50R WCI   0
MOSBY            N/A     18   3  53 NW6       30.48R WCI   9
WARRENSBURG    MOCLDY    21  10  63 NW7       30.45R WCI  13
WHITEMAN AFB   MOCLDY    20   9  62 N12       30.42R WCI   8
CLINTON        CLOUDY    23  12  63 NW7       30.43R WCI  15
SEDALIA        MOCLDY    22  10  60 N10       30.42R WCI  11
WARSAW         NOT AVBL
MARSHALL       MOCLDY    23  12  63 N8        30.42S WCI  14
CHILLICOTHE      N/A     16   5  62 N5        30.47R WCI   9
MOBERLY        PTCLDY    19   5  53 N8        30.42R WCI   9
KIRKSVILLE     NOT AVBL

$$

MOZ041-047>049-056>058-063>065-088>090-097-050900-
...EASTERN AND SOUTHERN MISSOURI...

CITY           SKY/WX    TMP DP  RH WIND       PRES   REMARKS
ST. LOUIS INTL PTCLDY    20   5  52 N6        30.41R WCI  12
SPIRIT OF STL  PTCLDY    20   4  50 N3        30.40R
COLUMBIA       MOCLDY    20   9  62 N8        30.38R WCI  10
JEFFERSON CITY MOCLDY    20  11  68 NW3       30.41R
MEXICO         MOCLDY    21  14  73 NW7       30.39R WCI  13
ROLLA          CLEAR     20   7  57 NW5       30.34R WCI  13
OSAGE BEACH    MOCLDY    21   3  45 CALM      30.39S
SPRINGFIELD    CLOUDY    21  11  65 NW8       30.36R WCI  11
BRANSON        CLOUDY    19  14  79 NW6       30.36R WCI  11
NEVADA         MOCLDY    19  10  68 NW3       30.44R
JOPLIN         MOCLDY    21  12  68 N5        30.41R WCI  15
WEST PLAINS    CLOUDY    20   7  57 N8        30.33R WCI  10

$$

IAZ060-094-KSZ022-034>040-054-083-096-NEZ052-066-093-050900-
...KANSAS...SOUTHEAST NEBRASKA AND IOWA...

CITY           SKY/WX    TMP DP  RH WIND       PRES   REMARKS
TOPEKA         CLEAR     17   4  56 N10       30.48R WCI   5
MANHATTAN      CLEAR     15   4  61 NE5       30.47R WCI   8
EMPORIA        CLEAR     16   8  71 N3        30.44R
CHANUTE        CLEAR     18  11  74 CALM      30.43R
WICHITA        PTCLDY    18  10  71 NW6       30.43R WCI  10
OMAHA          CLEAR      6  -3  66 NE6       30.50R WCI  -4
LINCOLN        CLEAR      5  -3  69 N3        30.50R
FALLS CITY     CLEAR      9  -3  58 NE3       30.49R
LAMONI         CLEAR      8   0  69 N10       30.43S WCI  -6
DES MOINES     PTCLDY     7  -2  66 N8        30.47R WCI  -6

$$



USA.gov is the U.S. government's official web portal to all federal, state and local government web resources and services.